Temp
10 10 10 9 9 10 10 10 9 9 9 9 9 9 9 9 9 9 9 8 9 9 9 9 9 9 9 9 8 8 8 8 8 8 8 8 8 8 8 8 8 8 8
10 10 10 9 9 10 10 10 10 9 10 10 9 9 9 9 9 9 9 9 9 9 9 9 9 9 9 9 9 9 8 8 8 8 8 8 8 8 8 8 8 9 9
10 10 10 10 9 10 10 9 9 10 9 9 9 9 9 9 9 9 9 9 9 9 9 9 9 9 9 9 9 8 8 8 8 8 8 8 8 8 8 8 9 9 9
10 10 10 10 10 10 10 9 9 9 9 9 9 9 9 9 9 9 9 9 9 9 9 9 9 9 9 9 9 9 8 8 8 8 8 8 8 8 8 8 8 8 9
11 10 10 10 10 10 10 9 9 9 9 9 9 9 9 9 9 9 9 9 9 9 9 9 9 9 9 9 9 8 8 8 8 8 8 8 8 8 8 8 8 8 8
11 10 10 10 10 10 10 10 9 9 9 9 9 9 9 8 8 8 9 9 9 9 9 9 9 9 9 9 8 8 8 8 8 8 8 8 8 8 8 8 8 8 8
11 11 10 10 10 10 10 10 10 9 9 9 9 9 9 9 9 8 8 9 9 9 9 9 9 9 8 9 8 9 9 8 8 8 8 8 8 9 8 8 8 8 8
11 11 10 10 10 10 10 10 9 9 9 9 9 9 9 9 9 8 8 8 8 8 8 8 9 9 9 9 9 8 9 9 9 8 8 8 8 8 8 8 8 8 8
10 10 10 10 10 10 10 10 9 9 9 9 9 9 9 8 8 8 8 8 8 8 8 8 8 8 8 8 9 9 9 9 9 8 8 8 9 8 8 8 8 8 8
10 10 10 10 10 10 10 10 10 9 9 9 9 9 8 8 8 8 8 8 8 8 8 8 8 8 8 8 8 8 8 8 8 8 8 8 8 8 9 8 8 8 8
11 10 10 10 10 10 10 10 9 9 9 9 9 8 8 8 7 7 7 7 7 8 8 8 8 8 8 8 8 8 8 8 8 8 8 8 8 8 8 8 8 8 8
11 10 10 10 10 10 10 10 10 9 9 9 9 8 8 8 7 8 8 8 8 8 8 8 8 8 8 8 8 8 8 8 8 8 8 8 8 8 8 8 8 8 8
10 10 10 10 10 10 10 10 9 9 9 9 9 8 8 8 7 8 8 8 8 8 8 8 8 8 8 8 8 7 8 9 8 8 8 8 8 7 8 8 8 8 8
10 10 10 10 10 10 10 9 9 9 9 9 9 8 8 8 8 8 8 8 8 8 8 8 8 8 8 8 8 8 7 8 8 8 8 8 8 8 8 8 8 8 8
10 10 10 10 10 10 9 9 9 9 9 9 9 8 8 8 8 8 8 8 8 8 8 8 8 8 8 8 8 8 8 8 8 8 8 8 8 7 7 8 8 8 8
9 10 9 9 9 9 9 9 9 9 9 9 9 8 8 8 9 8 8 8 8 8 8 8 8 8 8 8 8 8 8 8 8 8 8 8 8 8 7 8 8 7 8
9 8 9 9 10 10 9 9 9 10 9 9 8 8 8 8 9 8 8 8 8 8 9 8 8 8 8 8 8 8 8 8 8 8 8 8 8 8 8 8 8 7 8
10 8 9 9 9 9 10 10 10 10 9 9 8 8 8 8 8 8 8 8 9 9 9 9 9 9 8 8 8 8 8 8 8 8 8 9 8 8 8 8 8 7 7
10 10 9 9 10 9 9 9 10 9 9 10 10 9 8 8 8 9 9 9 9 9 9 9 9 9 9 8 8 9 9 8 8 8 8 8 9 9 8 8 8 7 7
10 10 10 10 10 9 9 10 9 9 9 9 9 9 8 9 9 8 9 9 9 9 9 8 9 9 9 8 9 9 9 9 9 9 8 8 9 9 9 9 8 8 8
10 10 10 10 10 9 9 9 9 9 9 9 9 9 9 9 9 9 9 9 9 9 9 9 9 9 9 9 9 9 9 9 9 9 9 9 9 9 9 9 9 9 8
10 10 11 10 10 10 9 9 9 9 9 9 9 9 9 9 9 9 8 9 9 9 9 9 9 9 9 9 9 9 10 10 9 9 9 9 9 9 9 9 8 8 8
11 10 10 10 10 10 9 9 9 9 9 9 9 9 9 9 9 9 8 8 8 9 9 9 9 9 9 9 10 9 10 10 10 9 9 9 8 9 9 8 8 8 8
11 11 11 10 10 10 11 10 10 10 10 9 9 9 9 9 9 8 9 9 9 8 9 9 9 9 10 10 10 9 9 9 9 10 9 9 9 9 9 8 8 8 8
11 11 11 11 11 11 11 10 10 10 10 10 10 9 9 9 9 9 10 9 10 10 10 10 10 10 10 10 9 9 9 9 9 9 9 9 9 8 8 8 9 9 9
12 12 12 11 11 11 10 11 11 11 11 11 10 10 9 9 9 9 9 10 10 10 10 10 10 10 9 9 9 9 9 9 9 9 10 10 8 8 8 8 8 8 9
Height
3166 3167 3168 3170 3172 3174 3175 3176 3176 3177 3177 3179 3179 3178 3179 3180 3181 3182 3182 3181 3183 3183 3184 3185 3185 3186 3187 3188 3188 3188 3188 3189 3189 3191 3191 3191 3192 3193 3194 3194 3195 3195 3195
3168 3168 3170 3172 3174 3176 3178 3179 3179 3179 3180 3181 3182 3181 3182 3183 3183 3184 3184 3185 3185 3185 3186 3186 3187 3188 3188 3189 3190 3190 3190 3190 3190 3191 3192 3192 3194 3194 3194 3195 3196 3196 3196
3170 3170 3172 3174 3176 3178 3179 3180 3181 3182 3183 3184 3184 3184 3185 3185 3185 3185 3186 3187 3187 3187 3188 3188 3188 3189 3189 3190 3191 3190 3190 3191 3192 3192 3193 3193 3194 3196 3197 3197 3197 3197 3197
3172 3173 3174 3176 3178 3181 3182 3183 3183 3184 3185 3186 3186 3186 3186 3186 3187 3188 3188 3189 3189 3189 3189 3189 3190 3191 3192 3192 3191 3191 3191 3192 3193 3194 3194 3195 3196 3197 3198 3199 3199 3199 3199
3174 3175 3177 3178 3180 3182 3184 3184 3185 3186 3187 3188 3189 3189 3189 3190 3189 3189 3189 3190 3190 3190 3190 3190 3191 3192 3193 3193 3193 3193 3193 3193 3194 3195 3196 3197 3198 3198 3199 3200 3201 3201 3201
3176 3178 3179 3181 3183 3184 3185 3186 3187 3187 3188 3189 3189 3190 3190 3190 3191 3191 3191 3191 3191 3191 3192 3192 3193 3193 3193 3194 3194 3195 3195 3195 3196 3196 3197 3198 3199 3199 3199 3200 3201 3202 3202
3178 3180 3182 3183 3185 3186 3187 3188 3189 3189 3190 3190 3191 3191 3191 3191 3191 3192 3192 3192 3192 3193 3193 3193 3193 3194 3194 3194 3194 3196 3197 3197 3197 3198 3198 3198 3199 3199 3200 3201 3202 3203 3203
3180 3182 3183 3185 3187 3188 3189 3189 3191 3191 3192 3192 3192 3193 3193 3193 3192 3193 3193 3193 3193 3193 3193 3194 3194 3194 3194 3195 3195 3196 3196 3197 3198 3198 3199 3199 3199 3199 3200 3201 3203 3204 3204
3181 3184 3185 3186 3188 3190 3190 3191 3192 3193 3193 3193 3193 3193 3193 3193 3193 3193 3193 3193 3193 3193 3193 3193 3194 3194 3194 3195 3195 3196 3197 3198 3198 3198 3198 3199 3199 3199 3200 3201 3203 3205 3205
3183 3185 3186 3188 3189 3191 3192 3193 3194 3194 3194 3194 3194 3193 3193 3193 3193 3192 3192 3192 3192 3192 3192 3192 3193 3194 3194 3194 3195 3196 3196 3197 3198 3197 3197 3199 3200 3201 3200 3201 3202 3204 3206
3183 3185 3187 3189 3190 3192 3193 3194 3194 3195 3195 3196 3195 3194 3193 3192 3192 3191 3191 3190 3190 3190 3191 3192 3192 3193 3193 3193 3193 3194 3195 3196 3196 3197 3197 3198 3199 3200 3201 3201 3201 3202 3204
3184 3186 3188 3190 3192 3193 3194 3194 3195 3196 3196 3196 3195 3195 3194 3193 3192 3192 3191 3192 3190 3189 3190 3189 3191 3192 3192 3192 3191 3192 3192 3194 3195 3195 3196 3196 3197 3198 3199 3200 3200 3201 3202
3185 3187 3189 3190 3192 3193 3195 3195 3196 3196 3196 3196 3196 3196 3195 3194 3193 3192 3192 3192 3191 3189 3189 3188 3188 3189 3190 3190 3190 3190 3190 3191 3192 3193 3194 3195 3194 3194 3196 3198 3199 3200 3200
3186 3188 3189 3191 3192 3193 3194 3196 3196 3196 3196 3196 3196 3196 3196 3194 3194 3193 3192 3192 3191 3190 3188 3188 3188 3188 3187 3188 3187 3187 3186 3188 3190 3190 3191 3192 3192 3193 3194 3195 3197 3198 3199
3187 3188 3190 3191 3193 3193 3194 3195 3196 3196 3196 3196 3195 3195 3195 3194 3193 3192 3191 3191 3190 3188 3188 3187 3186 3187 3186 3185 3185 3184 3183 3185 3186 3187 3188 3188 3190 3190 3191 3192 3194 3196 3197
3188 3189 3190 3191 3192 3193 3194 3194 3195 3196 3197 3197 3196 3194 3194 3194 3193 3192 3191 3189 3187 3187 3186 3186 3185 3185 3184 3183 3183 3181 3181 3181 3181 3183 3184 3185 3187 3187 3188 3189 3190 3192 3194
3185 3187 3188 3190 3191 3192 3193 3194 3195 3196 3195 3195 3194 3194 3195 3194 3193 3192 3190 3188 3186 3185 3184 3184 3183 3183 3182 3181 3181 3180 3179 3178 3177 3179 3180 3182 3184 3184 3185 3186 3187 3188 3190
3183 3176 3186 3188 3189 3191 3192 3193 3194 3194 3194 3193 3193 3194 3194 3194 3193 3191 3188 3186 3183 3183 3183 3182 3180 3180 3180 3179 3179 3177 3176 3175 3175 3174 3175 3177 3179 3180 3181 3183 3183 3185 3186
3183 3184 3183 3186 3187 3189 3190 3191 3192 3191 3191 3192 3192 3191 3193 3192 3190 3188 3187 3182 3179 3179 3179 3178 3176 3178 3177 3176 3175 3174 3173 3172 3171 3170 3170 3172 3174 3175 3176 3177 3179 3180 3181
3185 3185 3184 3185 3185 3187 3189 3190 3190 3189 3190 3191 3190 3190 3190 3190 3188 3186 3184 3180 3175 3175 3175 3176 3176 3175 3174 3173 3171 3169 3168 3168 3168 3167 3167 3167 3169 3171 3172 3173 3174 3175 3177
3184 3185 3185 3184 3184 3186 3188 3188 3190 3190 3189 3191 3191 3190 3189 3187 3186 3185 3183 3179 3177 3174 3174 3174 3174 3173 3171 3169 3167 3165 3164 3163 3162 3163 3163 3163 3164 3165 3167 3168 3169 3170 3172
3184 3184 3184 3183 3184 3184 3186 3188 3190 3189 3190 3189 3189 3188 3187 3185 3184 3181 3179 3177 3175 3173 3172 3171 3170 3168 3168 3165 3162 3159 3157 3158 3157 3157 3158 3159 3160 3160 3161 3163 3164 3166 3167
3183 3184 3184 3184 3184 3185 3186 3187 3188 3189 3187 3187 3187 3186 3184 3183 3181 3178 3177 3175 3173 3172 3169 3167 3166 3165 3164 3162 3159 3155 3150 3148 3150 3151 3153 3154 3155 3156 3157 3158 3157 3159 3161
3182 3182 3183 3182 3184 3186 3186 3186 3187 3186 3186 3185 3185 3184 3183 3181 3180 3177 3175 3172 3170 3169 3167 3164 3162 3161 3159 3158 3156 3151 3145 3142 3141 3144 3147 3149 3149 3152 3153 3153 3153 3153 3154
3181 3180 3182 3182 3184 3185 3185 3184 3186 3186 3186 3185 3185 3184 3182 3180 3177 3175 3173 3170 3168 3166 3163 3161 3159 3158 3156 3154 3151 3146 3142 3139 3138 3138 3139 3144 3145 3147 3147 3148 3148 3149 3150
3180 3179 3181 3181 3183 3183 3183 3184 3184 3183 3184 3185 3184 3182 3180 3177 3175 3172 3169 3167 3165 3163 3160 3158 3156 3155 3153 3151 3148 3144 3140 3136 3134 3134 3134 3138 3138 3141 3140 3141 3143 3144 3145
Wind_Speed
19 18 18 16 14 13 13 11 13 14 15 14 15 16 14 13 12 13 14 14 15 13 13 12 12 11 10 9 9 8 9 8 7 8 8 9 8 7 6 5 4 4 2
15 18 17 16 13 12 11 11 13 14 13 12 12 12 12 11 12 13 13 14 14 14 13 12 11 11 10 10 10 9 9 9 8 7 8 9 9 8 6 4 3 3 3
14 16 17 16 13 13 12 12 13 12 11 10 10 10 10 10 10 11 12 12 11 11 12 11 10 10 10 11 10 10 9 9 9 8 7 7 7 6 4 4 4 4 4
13 14 16 15 14 13 13 13 12 11 11 10 10 10 10 9 9 10 10 10 10 10 10 10 10 10 10 9 10 9 9 8 8 8 8 8 8 8 7 5 5 6 6
14 13 14 14 14 13 13 12 11 11 9 9 9 8 8 9 9 9 9 9 8 7 7 8 9 9 9 9 8 8 9 6 9 7 8 8 7 8 6 5 5 7 7
13 13 12 13 12 12 11 10 8 8 8 8 7 7 7 7 7 8 8 8 7 7 6 6 7 8 9 8 7 6 6 6 7 7 6 5 6 7 7 5 3 4 4
12 12 12 11 11 11 10 8 8 7 7 7 6 5 4 5 5 5 5 5 6 7 7 6 6 6 7 7 7 5 6 7 6 7 7 6 5 6 6 4 3 3 4
10 10 11 11 11 10 9 8 6 6 5 4 3 2 1 1 2 1 3 4 6 7 7 7 6 6 7 6 7 6 6 6 7 3 4 6 6 6 6 5 3 3 4
11 10 10 10 10 9 8 7 6 4 4 2 1 1 2 2 3 5 5 6 7 8 9 9 8 7 7 7 7 6 6 7 7 6 5 8 7 7 6 6 5 3 4
12 10 9 8 8 8 7 6 5 4 2 2 1 1 3 4 4 5 7 8 10 10 10 10 10 9 9 9 8 8 8 7 8 7 6 8 7 7 7 8 7 5 5
13 11 10 9 8 9 8 7 6 5 3 2 1 3 3 1 1 1 2 3 3 7 12 12 11 11 10 10 10 9 9 9 9 8 8 10 9 8 7 8 8 8 6
11 9 10 9 8 8 8 7 5 4 3 2 2 2 3 4 4 3 2 1 1 0 4 12 13 11 11 11 11 12 12 12 11 10 10 14 12 12 11 10 10 9 8
9 9 9 9 9 8 7 6 5 5 3 4 4 3 1 4 5 5 3 2 2 3 2 2 9 12 13 12 15 17 18 15 13 13 12 13 14 18 14 13 12 11 10
4 7 9 9 9 8 7 7 5 6 4 6 5 5 4 4 4 4 4 5 4 4 3 2 4 7 11 12 12 14 18 17 15 15 14 13 14 18 15 15 15 15 14
1 4 7 9 11 8 6 7 7 5 3 5 4 5 5 5 5 4 6 5 7 6 5 5 5 7 8 11 11 11 12 16 17 16 15 15 15 12 15 15 17 17 17
5 4 4 9 11 9 8 9 8 6 4 3 3 6 6 5 4 5 8 11 10 9 8 7 6 6 7 9 10 10 12 15 18 18 17 17 16 20 16 20 20 20 19
7 9 8 3 6 8 9 9 8 6 4 4 5 6 6 5 3 12 12 11 11 13 9 7 7 8 9 11 10 12 13 14 15 18 18 20 20 19 18 20 22 18 19
17 13 3 4 6 5 5 4 6 4 4 5 6 7 7 7 10 12 12 13 15 12 13 12 11 12 13 14 14 13 16 14 17 18 20 17 19 18 23 24 25 23 23
14 12 2 4 8 4 3 6 4 2 5 5 4 5 5 7 10 14 15 17 18 14 13 12 12 12 13 16 17 17 18 15 18 18 19 20 18 17 21 23 24 21 24
9 7 4 6 10 8 5 3 4 6 7 6 4 5 6 8 10 12 15 17 11 12 14 15 14 12 12 14 18 19 20 21 23 18 17 18 19 19 17 18 22 25 24
5 4 2 2 9 6 3 4 7 8 9 6 1 3 5 10 11 12 14 14 9 8 13 12 15 16 16 20 21 21 23 24 23 21 16 16 14 16 18 19 19 20 23
4 2 1 1 6 9 9 8 10 10 10 8 5 9 11 13 13 15 14 14 10 8 10 14 14 15 16 18 20 25 23 22 24 22 21 19 16 16 17 18 20 19 20
3 2 1 3 5 10 12 12 10 9 10 9 8 10 12 14 15 15 16 10 10 13 14 18 18 18 18 19 24 28 29 26 18 24 22 19 17 18 17 16 18 22 21
5 4 3 3 5 9 8 8 7 6 6 7 9 10 13 15 16 13 17 16 16 17 19 20 19 19 21 22 24 23 20 24 20 21 25 23 19 18 19 18 18 18 21
6 3 7 5 8 9 7 6 6 4 4 5 7 10 14 14 14 12 13 13 13 12 11 12 14 17 19 19 24 23 20 17 17 19 25 25 21 20 20 22 20 17 19
8 5 7 7 7 9 8 7 4 2 3 6 9 10 12 13 12 11 11 13 13 12 12 12 13 13 14 16 20 20 19 15 13 16 21 24 24 24 26 22 24 24 24
Wind_Direction
148 143 138 137 133 130 125 119 115 116 115 111 109 109 109 106 107 109 105 111 129 123 127 131 130 126 131 143 144 131 123 120 126 126 125 123 125 118 121 127 130 131 115
148 143 142 141 138 134 131 129 121 116 109 111 112 107 110 114 116 116 114 114 121 124 131 127 129 127 131 132 127 126 119 120 123 129 128 126 125 122 136 150 146 145 135
154 144 146 145 146 142 136 130 121 118 118 114 111 111 111 117 116 113 117 122 128 129 126 124 124 124 125 121 119 119 118 121 125 129 131 128 126 134 141 133 144 139 125
156 148 146 147 149 148 144 140 131 125 121 117 113 108 105 106 124 131 126 128 129 130 129 128 127 129 120 117 121 122 122 122 121 127 124 125 125 121 124 129 143 127 124
155 150 146 148 152 149 144 136 134 127 119 117 117 115 114 125 129 129 130 133 130 130 134 140 139 134 132 132 126 118 105 118 137 130 126 134 142 130 127 137 138 133 132
154 151 148 147 147 144 139 136 130 130 126 121 117 117 115 113 124 132 137 132 130 136 155 160 158 150 148 145 140 134 118 111 121 132 125 129 135 125 118 111 119 120 127
152 149 147 147 147 147 142 142 140 132 125 118 114 108 107 109 123 133 140 141 149 156 161 174 174 176 171 165 164 165 148 149 161 158 150 147 146 131 123 122 127 135 133
152 148 148 149 152 151 151 145 136 125 111 102 98 87 60 3 299 198 183 188 185 181 180 187 189 189 196 191 180 183 174 176 180 172 190 170 165 154 136 135 145 151 139
153 155 149 150 151 159 155 144 132 127 117 123 84 49 347 322 299 272 263 244 224 203 197 203 203 209 216 216 208 205 203 186 190 212 229 201 181 169 166 158 161 179 169
160 158 155 158 159 162 163 153 144 144 149 126 93 305 318 315 292 283 266 261 253 232 220 208 211 215 226 236 236 231 226 223 211 208 208 205 212 190 186 180 175 184 199
167 165 165 171 175 172 173 170 168 163 156 127 54 9 52 63 3 323 283 265 233 236 233 229 220 220 227 241 251 251 245 239 236 222 208 208 214 209 213 206 192 186 200
167 170 171 178 185 188 187 183 179 171 183 173 192 123 41 52 21 1 355 294 75 312 256 239 228 230 228 238 246 262 265 253 249 240 233 215 221 221 215 218 214 203 198
173 181 188 189 194 200 210 206 201 208 221 205 218 196 343 3 354 6 347 351 33 96 17 325 221 226 239 244 254 260 263 260 253 252 244 240 236 224 217 221 223 217 209
210 211 210 213 205 212 228 239 250 232 222 231 224 244 254 302 319 332 339 328 334 358 5 327 252 244 247 250 271 259 255 250 252 251 246 246 245 232 230 231 231 226 221
111 247 233 234 231 215 210 227 263 246 247 264 242 238 264 286 295 297 311 303 311 319 296 303 281 255 261 259 269 267 255 248 249 257 247 251 235 229 229 237 242 237 235
263 309 263 236 225 224 223 226 234 223 241 258 277 259 248 246 261 300 305 295 287 285 296 285 273 282 280 276 272 258 255 257 260 257 257 257 236 226 256 241 242 238 239
309 237 260 255 207 218 230 224 229 233 237 256 269 251 247 251 240 335 319 290 288 290 280 282 283 274 276 281 283 274 258 254 253 254 254 252 246 251 243 242 236 234 241
281 2 189 261 200 245 235 210 217 224 260 262 275 280 261 289 295 330 331 294 272 272 279 271 271 272 274 277 277 285 275 266 263 249 249 254 246 249 246 240 245 246 242
305 345 16 198 180 208 265 231 236 289 304 312 297 262 250 327 268 302 319 317 274 259 266 264 264 271 278 280 280 280 279 274 266 265 256 254 255 256 240 239 237 242 238
284 323 355 196 196 229 291 255 285 291 291 301 288 255 271 289 295 308 316 333 298 253 254 267 281 279 289 292 288 289 278 267 271 277 268 258 253 255 262 250 244 238 238
226 281 334 169 188 191 217 279 254 250 256 292 321 312 269 288 298 312 321 324 332 261 249 276 268 273 283 290 290 288 286 274 268 265 272 269 266 265 264 263 256 250 241
188 241 3 94 193 173 181 213 226 238 250 272 278 294 293 298 313 319 326 326 312 298 276 272 282 290 292 304 305 297 295 271 262 264 259 262 260 263 259 263 257 255 252
194 178 229 151 192 198 195 213 229 236 245 257 267 281 288 302 317 317 325 316 310 297 299 296 291 292 297 302 307 309 302 290 262 248 255 255 255 259 264 256 256 248 250
209 212 231 186 192 206 204 201 213 227 232 245 275 289 303 303 317 311 314 302 295 286 285 287 286 285 299 305 308 305 314 299 272 254 241 250 248 256 259 264 267 264 244
221 233 234 211 218 218 213 214 224 235 275 307 316 307 310 307 310 318 316 321 320 314 306 303 298 294 299 312 321 322 322 300 283 269 250 233 246 248 251 251 260 254 254
210 215 236 224 230 225 222 225 226 243 301 318 328 325 316 323 331 338 343 345 345 341 334 327 324 312 304 314 330 336 336 328 291 272 261 235 237 253 259 253 259 259 257